Sand Point, AK

7:09 AM AKST on November 23, 2017 (GMT -0900)
Sand Point

Weather History for PASD - February, 2014

Change the Weather History Date:

Tuesday, February 25, 2014

  Actual Average Record
Temperature  
Mean Temperature 34 °F -  
Max Temperature 37 °F 34 °F 44 °F (2015)
Min Temperature 32 °F 28 °F 10 °F (1986)
Degree Days  
Heating Degree Days 30    
Moisture  
Dew Point 33 °F    
Average Humidity 92    
Maximum Humidity 100    
Minimum Humidity 75    
Precipitation  
Precipitation 0.00 in - - ()
Sea Level Pressure  
Sea Level Pressure 29.50 in    
Wind  
Wind Speed 8 mph (NE)    
Max Wind Speed 22 mph    
Max Gust Speed 36 mph    
Visibility 7 miles    
Events      
Averages and records for this station are not official NWS values.
T = Trace of Precipitation, MM = Missing Value Source: NWS Daily Summary

Daily Weather History Graph

Daily Weather History Graph

Search for Another Location

Airport or City:

Trip Planner

Search our weather history database for the weather conditions in past years. The results will help you decide how hot, cold, wet, or windy it might be!

Date:

Astronomy

Feb. 25, 2014 Rise Set
Actual Time 8:41 AM AKST 7:09 PM AKST
Civil Twilight 8:04 AM AKST 7:46 PM AKST
Nautical Twilight 7:22 AM AKST 8:28 PM AKST
Astronomical Twilight 6:39 AM AKST 9:11 PM AKST
Moon 6:15 AM AKST (2/25) 3:01 PM AKST (2/25)
Length of Visible Light 11h 42m
Length of Day
10h 28m
Waning Crescent, 17% of the Moon is Illuminated
Feb 25
Waning Crescent
Feb 28
New
Mar 8
First Quarter
Mar 16
Full
Mar 23
Last Quarter

Hourly Weather History & Observations

Time (AKST) Temp. Windchill Dew Point Humidity Pressure Visibility Wind Dir Wind Speed Gust Speed Precip Events Conditions
12:16 AM 32.0 °F 26.4 °F 30.2 °F 93% 29.75 in 10.0 mi East 5.8 mph - N/A   Clear
12:36 AM 32.0 °F 27.5 °F 30.2 °F 93% 29.76 in 10.0 mi East 4.6 mph - N/A   Clear
12:56 AM 33.8 °F 30.8 °F 30.2 °F 87% 29.76 in 10.0 mi East 3.5 mph - N/A   Clear
1:16 AM 33.8 °F 29.6 °F 30.2 °F 87% 29.76 in 10.0 mi East 4.6 mph - N/A   Partly Cloudy
1:36 AM 33.8 °F 29.6 °F 30.2 °F 87% 29.76 in 10.0 mi East 4.6 mph - N/A   Partly Cloudy
1:56 AM 33.8 °F 30.8 °F 30.2 °F 87% 29.77 in 10.0 mi ENE 3.5 mph - N/A   Scattered Clouds
2:16 AM 33.8 °F - 30.2 °F 87% 29.77 in 10.0 mi Calm Calm - N/A   Mostly Cloudy
2:36 AM 33.8 °F - 30.2 °F 87% 29.77 in 10.0 mi Calm Calm - N/A   Mostly Cloudy
2:56 AM 33.8 °F - 30.2 °F 87% 29.76 in 10.0 mi Calm Calm - N/A   Overcast
3:16 AM 35.6 °F - 30.2 °F 81% 29.76 in 10.0 mi Calm Calm - N/A   Overcast
3:36 AM 33.8 °F - 30.2 °F 87% 29.75 in 10.0 mi Calm Calm - N/A   Overcast
3:56 AM 35.6 °F - 30.2 °F 81% 29.76 in 10.0 mi Calm Calm - N/A   Overcast
4:16 AM 35.6 °F - 30.2 °F 81% 29.75 in 10.0 mi Calm Calm - N/A   Mostly Cloudy
4:36 AM 35.6 °F 31.7 °F 30.2 °F 81% 29.74 in 10.0 mi ENE 4.6 mph - N/A   Mostly Cloudy
4:56 AM 35.6 °F - 30.2 °F 81% 29.74 in 10.0 mi Calm Calm - N/A   Mostly Cloudy
5:16 AM 35.6 °F 31.7 °F 30.2 °F 81% 29.74 in 10.0 mi ENE 4.6 mph - N/A   Overcast
5:36 AM 35.6 °F 31.7 °F 30.2 °F 81% 29.73 in 10.0 mi ENE 4.6 mph - N/A   Overcast
5:56 AM 35.6 °F 31.7 °F 30.2 °F 81% 29.73 in 10.0 mi NE 4.6 mph - N/A   Overcast
6:16 AM 35.6 °F 32.8 °F 30.2 °F 81% 29.73 in 10.0 mi ENE 3.5 mph - N/A   Overcast
6:36 AM 37.4 °F 32.1 °F 30.2 °F 75% 29.72 in 10.0 mi East 6.9 mph - N/A   Overcast
6:56 AM 37.4 °F 32.8 °F 30.2 °F 75% 29.71 in 10.0 mi NE 5.8 mph - N/A   Mostly Cloudy
7:16 AM 35.6 °F 29.2 °F 30.2 °F 81% 29.70 in 10.0 mi NE 8.1 mph - N/A   Mostly Cloudy
7:36 AM 35.6 °F 30.7 °F 30.2 °F 81% 29.70 in 10.0 mi NE 5.8 mph - N/A   Mostly Cloudy
7:56 AM 35.6 °F 28.6 °F 32.0 °F 87% 29.69 in 10.0 mi NE 9.2 mph - N/A   Mostly Cloudy
8:16 AM 37.4 °F 33.8 °F 32.0 °F 81% 29.68 in 10.0 mi NE 4.6 mph - N/A   Mostly Cloudy
8:36 AM 37.4 °F 32.8 °F 32.0 °F 81% 29.67 in 10.0 mi NNE 5.8 mph - N/A   Overcast
8:56 AM 35.6 °F 29.2 °F 33.8 °F 93% 29.67 in 10.0 mi NNE 8.1 mph 16.1 mph N/A   Overcast
9:16 AM 35.6 °F 28.0 °F 33.8 °F 93% 29.66 in 10.0 mi NNE 10.4 mph 16.1 mph N/A   Overcast
9:36 AM 35.6 °F 27.1 °F 33.8 °F 93% 29.65 in 10.0 mi NNE 12.7 mph 19.6 mph N/A   Overcast
9:56 AM 35.6 °F 29.2 °F 33.8 °F 93% 29.64 in 10.0 mi NE 8.1 mph 16.1 mph N/A   Overcast
10:16 AM 37.4 °F 29.8 °F 35.6 °F 93% 29.63 in 10.0 mi NE 11.5 mph 18.4 mph N/A   Overcast
10:36 AM 37.4 °F 30.3 °F 35.6 °F 93% 29.63 in 10.0 mi NE 10.4 mph 18.4 mph N/A   Overcast
10:56 AM 37.4 °F 30.8 °F 35.6 °F 93% 29.62 in 10.0 mi NE 9.2 mph 19.6 mph N/A   Overcast
11:16 AM 37.4 °F 29.8 °F 35.6 °F 93% 29.60 in 10.0 mi NNE 11.5 mph 18.4 mph N/A   Overcast
11:36 AM 37.4 °F 31.4 °F 35.6 °F 93% 29.59 in 10.0 mi NNE 8.1 mph - N/A   Overcast
11:56 AM 37.4 °F 29.8 °F 35.6 °F 93% 29.57 in 9.0 mi NNE 11.5 mph 18.4 mph N/A   Overcast
12:16 PM 35.6 °F 28.0 °F 35.6 °F 100% 29.55 in 10.0 mi NNE 10.4 mph 20.7 mph N/A   Overcast
12:36 PM 37.4 °F 27.8 °F 35.6 °F 93% 29.53 in 9.0 mi NNE 17.3 mph 24.2 mph N/A   Overcast
12:56 PM 35.6 °F 24.8 °F 35.6 °F 100% 29.52 in 3.0 mi NNE 19.6 mph 24.2 mph N/A   Overcast
1:16 PM 35.6 °F 25.9 °F 35.6 °F 100% 29.51 in 3.0 mi NNE 16.1 mph 23.0 mph N/A   Overcast
1:36 PM 35.6 °F 27.1 °F 33.8 °F 93% 29.49 in 3.0 mi NNE 12.7 mph 21.9 mph N/A   Overcast
1:56 PM 35.6 °F 27.5 °F 35.6 °F 100% 29.48 in 3.0 mi NNE 11.5 mph 24.2 mph N/A   Overcast
2:16 PM 35.6 °F 28.0 °F 35.6 °F 100% 29.46 in 6.0 mi NE 10.4 mph 20.7 mph N/A   Overcast
2:36 PM 35.6 °F 27.1 °F 33.8 °F 93% 29.45 in 4.0 mi NNE 12.7 mph 17.3 mph N/A   Overcast
2:56 PM 35.6 °F 26.2 °F 35.6 °F 100% 29.43 in 6.0 mi NE 15.0 mph 24.2 mph N/A   Overcast
3:16 PM 37.4 °F 26.9 °F 35.6 °F 93% 29.42 in 6.0 mi NE 20.7 mph 32.2 mph N/A   Overcast
3:36 PM 35.6 °F 25.2 °F 35.6 °F 100% 29.40 in 4.0 mi NE 18.4 mph 31.1 mph N/A   Overcast
3:56 PM 35.6 °F 27.5 °F 35.6 °F 100% 29.38 in 2.5 mi NNE 11.5 mph 23.0 mph N/A   Overcast
4:16 PM 33.8 °F 26.4 °F 33.8 °F 100% 29.37 in 2.0 mi NNE 9.2 mph 17.3 mph N/A   Overcast
4:36 PM 35.6 °F 27.5 °F 35.6 °F 100% 29.36 in 2.5 mi NNE 11.5 mph 23.0 mph N/A   Overcast
4:56 PM 33.8 °F 27.0 °F 33.8 °F 100% 29.35 in 2.0 mi NNE 8.1 mph 19.6 mph N/A   Overcast
5:16 PM 33.8 °F 25.3 °F 32.0 °F 93% 29.32 in 1.5 mi North 11.5 mph 17.3 mph N/A   Overcast
5:36 PM 33.8 °F 26.4 °F 32.0 °F 93% 29.32 in 1.5 mi North 9.2 mph - N/A   Overcast
5:56 PM 33.8 °F 25.8 °F 33.8 °F 100% 29.29 in 2.0 mi North 10.4 mph - N/A   Overcast
6:16 PM 33.8 °F 25.3 °F 33.8 °F 100% 29.28 in 2.0 mi NNE 11.5 mph - N/A   Overcast
6:36 PM 33.8 °F 24.8 °F 33.8 °F 100% 29.27 in 2.0 mi North 12.7 mph - N/A   Overcast
6:56 PM 33.8 °F 25.3 °F 33.8 °F 100% 29.25 in 1.0 mi NNE 11.5 mph 18.4 mph N/A   Overcast
7:16 PM 35.6 °F 25.9 °F 35.6 °F 100% 29.23 in 1.0 mi NE 16.1 mph 34.5 mph N/A   Overcast
7:36 PM 37.4 °F 26.9 °F 35.6 °F 93% 29.21 in 1.0 mi NNE 20.7 mph 34.5 mph N/A   Overcast
7:56 PM 37.4 °F 26.6 °F 35.6 °F 93% 29.19 in 1.0 mi NE 21.9 mph 33.4 mph N/A   Overcast
8:16 PM 37.4 °F 28.2 °F 35.6 °F 93% 29.18 in 10.0 mi NE 16.1 mph 35.7 mph N/A   Overcast
8:36 PM 35.6 °F 24.8 °F 35.6 °F 100% 29.17 in 6.0 mi NE 19.6 mph 35.7 mph N/A   Overcast
8:56 PM 37.4 °F 28.9 °F 35.6 °F 93% 29.16 in 7.0 mi NE 13.8 mph 31.1 mph N/A   Overcast
9:16 PM 35.6 °F 25.5 °F 33.8 °F 93% 29.15 in 5.0 mi NE 17.3 mph 32.2 mph N/A   Overcast
9:36 PM 37.4 °F 28.2 °F 37.4 °F 100% 29.14 in 5.0 mi NE 16.1 mph 31.1 mph N/A   Overcast
9:56 PM 37.4 °F 28.9 °F 35.6 °F 93% 29.14 in 7.0 mi NE 13.8 mph 33.4 mph N/A   Overcast
10:16 PM 37.4 °F 27.8 °F 35.6 °F 93% 29.14 in 7.0 mi NE 17.3 mph 29.9 mph N/A   Overcast
10:36 PM 37.4 °F 28.2 °F 37.4 °F 100% 29.13 in 7.0 mi NE 16.1 mph 26.5 mph N/A   Overcast
10:56 PM 37.4 °F 27.2 °F 35.6 °F 93% 29.13 in 8.0 mi NE 19.6 mph 29.9 mph N/A   Overcast
11:16 PM 37.4 °F 26.6 °F 37.4 °F 100% 29.12 in 7.0 mi NE 21.9 mph 34.5 mph N/A   Overcast
11:36 PM 37.4 °F 26.9 °F 37.4 °F 100% 29.11 in 6.0 mi NE 20.7 mph 33.4 mph N/A   Overcast
11:56 PM 37.4 °F 27.8 °F 35.6 °F 93% 29.11 in 5.0 mi ENE 17.3 mph 28.8 mph N/A   Overcast